Date String (YYYY-MM-DD hh:mm:ss) UTC,Instrument flags,Ambient pressure (hPa),Sample flow (lpm),Bypass flow (lpm),Sample temperature (°C),Ambient temperature (°C),ASC tube jacket temperature (°C),LED temperature (°C),Box temperature (°C),Sample RH (%),Span deviation,Mass concentration (μg/m³),Mass concentration (μg/m³),Mass concentration (μg/m³)
DateTimeUTC,F1_M11,P_M11,Q1_M11,Q2_M11,T1_M11,T2_M11,T3_M11,T4_M11,T5_M11,U1_M11,ZSPAN_M11,X0_M11,X2_M11,X1_M11
2022-08-12 21:00:00,,0830.5,5.01,0.00,29.2,27.4,00.0,37.9,31.0,28.8,0000.0,0015.06,0004.86,0003.79
2022-08-12 21:01:00,,0830.5,4.99,0.00,29.2,27.6,00.0,37.9,31.0,28.7,0000.0,0015.47,0004.83,0003.79
2022-08-12 21:02:00,,0830.4,5.00,0.00,29.2,27.8,00.0,37.9,31.1,28.6,0000.0,0014.57,0004.77,0003.78
2022-08-12 21:03:00,,0830.4,4.99,0.00,29.3,28.0,00.0,37.9,31.2,28.8,0000.0,0014.84,0004.76,0003.79
2022-08-12 21:04:00,,0830.4,5.01,0.00,29.3,28.2,00.0,38.0,31.3,28.8,0000.0,0014.82,0004.73,0003.79
2022-08-12 21:05:00,,0830.4,5.01,0.00,29.3,28.0,00.0,38.0,31.3,28.8,0000.0,0014.53,0004.70,0003.78
2022-08-12 21:06:00,,0830.4,5.00,0.00,29.3,27.5,00.0,37.9,31.1,29.0,0000.0,0014.55,0004.73,0003.77
2022-08-12 21:07:00,,0830.5,5.01,0.00,29.3,27.2,00.0,37.9,31.0,28.7,0000.0,0014.17,0004.79,0003.78
2022-08-12 21:08:00,,0830.4,4.99,0.00,29.2,27.2,00.0,37.9,31.0,29.2,0000.0,0013.94,0004.83,0003.77
2022-08-12 21:09:00,,0830.4,5.01,0.00,29.2,27.3,00.0,37.9,31.0,29.1,0000.0,0012.88,0004.78,0003.77
2022-08-12 21:10:00,,0830.3,5.01,0.00,29.2,27.5,00.0,37.9,31.0,28.9,0000.0,0012.61,0004.78,0003.78
2022-08-12 21:11:00,,0830.3,5.01,0.00,29.2,27.8,00.0,37.9,31.1,29.1,0000.0,0012.79,0004.76,0003.79
2022-08-12 21:12:00,,0830.4,4.99,0.00,29.3,28.0,00.0,38.0,31.2,29.0,0000.0,0012.55,0004.78,0003.80
2022-08-12 21:13:00,,0830.4,5.00,0.00,29.3,28.2,00.0,38.0,31.3,29.0,0000.0,0012.96,0004.79,0003.80
2022-08-12 21:14:00,,0830.3,5.00,0.00,29.3,28.1,00.0,38.0,31.3,29.0,0000.0,0013.63,0004.81,0003.81
2022-08-12 21:15:00,,0830.3,5.00,0.00,29.3,27.5,00.0,38.0,31.1,29.5,0000.0,0013.95,0004.85,0003.82
2022-08-12 21:16:00,,0830.3,5.00,0.00,29.3,27.2,00.0,37.9,31.1,29.7,0000.0,0014.31,0004.92,0003.82
2022-08-12 21:17:00,,0830.4,4.99,0.00,29.2,27.2,00.0,37.9,31.0,29.4,0000.0,0014.66,0004.94,0003.83
2022-08-12 21:18:00,,0830.3,4.99,0.00,29.2,27.4,00.0,37.9,31.0,29.4,0000.0,0015.09,0004.93,0003.84
2022-08-12 21:19:00,,0830.2,5.00,0.00,29.2,27.6,00.0,37.9,31.0,29.2,0000.0,0015.20,0004.95,0003.84
2022-08-12 21:20:00,,0830.3,5.01,0.00,29.2,27.8,00.0,38.0,31.1,29.5,0000.0,0016.13,0004.99,0003.84
2022-08-12 21:21:00,,0830.2,5.00,0.00,29.3,28.0,00.0,38.0,31.2,29.1,0000.0,0016.68,0004.98,0003.83
2022-08-12 21:22:00,,0830.3,4.99,0.00,29.3,28.1,00.0,38.0,31.3,28.6,0000.0,0016.19,0005.02,0003.83
2022-08-12 21:23:00,,0830.2,5.01,0.00,29.3,27.7,00.0,38.0,31.2,28.8,0000.0,0016.71,0005.05,0003.83
2022-08-12 21:24:00,,0830.3,4.99,0.00,29.3,27.3,00.0,38.0,31.1,29.1,0000.0,0016.66,0005.09,0003.83
2022-08-12 21:25:00,,0830.2,5.00,0.00,29.2,27.2,00.0,38.0,31.0,29.2,0000.0,0017.32,0005.07,0003.83
2022-08-12 21:26:00,,0830.2,5.00,0.00,29.2,27.3,00.0,37.9,31.0,29.0,0000.0,0017.39,0005.09,0003.82
2022-08-12 21:27:00,,0830.2,5.00,0.00,29.2,27.5,00.0,37.9,31.0,29.1,0000.0,0017.45,0005.09,0003.83
2022-08-12 21:28:00,,0830.2,4.98,0.00,29.2,27.7,00.0,37.9,31.1,29.3,0000.0,0017.37,0005.14,0003.83
2022-08-12 21:29:00,,0830.2,5.01,0.00,29.2,27.9,00.0,38.0,31.1,29.1,0000.0,0017.55,0005.14,0003.84
2022-08-12 21:30:00,,0830.1,5.00,0.00,29.3,28.1,00.0,38.0,31.2,29.0,0000.0,0018.21,0005.07,0003.84
2022-08-12 21:31:00,,0830.1,5.00,0.00,29.3,28.3,00.0,38.0,31.3,29.1,0000.0,0017.46,0005.05,0003.85
2022-08-12 21:32:00,,0830.1,5.01,0.00,29.3,27.9,00.0,38.0,31.2,28.8,0000.0,0017.41,0005.07,0003.85
2022-08-12 21:33:00,,0830.1,5.00,0.00,29.3,27.4,00.0,37.9,31.1,29.0,0000.0,0017.45,0005.06,0003.86
2022-08-12 21:34:00,,0830.1,5.00,0.00,29.2,27.3,00.0,37.9,31.0,29.1,0000.0,0017.29,0005.09,0003.87
2022-08-12 21:35:00,,0830.1,4.99,0.00,29.2,27.4,00.0,37.9,31.0,29.5,0000.0,0017.35,0005.09,0003.88
2022-08-12 21:36:00,,0830.1,5.01,0.00,29.2,27.5,00.0,38.0,31.0,29.7,0000.0,0017.43,0005.16,0003.88
2022-08-12 21:37:00,,0830.1,4.99,0.00,29.2,27.7,00.0,38.0,31.1,29.9,0000.0,0017.77,0005.14,0003.88
2022-08-12 21:38:00,,0830.1,5.00,0.00,29.3,27.9,00.0,38.0,31.2,30.0,0000.0,0017.60,0005.07,0003.87
2022-08-12 21:39:00,,0830.1,5.00,0.00,29.3,28.1,00.0,38.0,31.2,29.8,0000.0,0017.24,0004.99,0003.84
2022-08-12 21:40:00,,0830.1,5.01,0.00,29.3,27.8,00.0,38.0,31.1,29.4,0000.0,0016.92,0004.98,0003.83
2022-08-12 21:41:00,,0830.1,4.98,0.00,29.2,27.3,00.0,37.9,31.0,29.0,0000.0,0016.70,0005.01,0003.82
2022-08-12 21:42:00,,0830.1,5.00,0.00,29.2,27.2,00.0,37.9,31.0,29.4,0000.0,0016.45,0005.04,0003.81
2022-08-12 21:43:00,,0830.0,5.00,0.00,29.2,27.3,00.0,37.9,30.9,29.6,0000.0,0016.49,0004.99,0003.80
2022-08-12 21:44:00,,0829.9,4.99,0.00,29.1,27.4,00.0,37.9,30.9,30.0,0000.0,0017.10,0004.95,0003.78
2022-08-12 21:45:00,,0829.9,5.00,0.00,29.2,27.7,00.0,37.9,31.0,30.1,0000.0,0016.70,0004.91,0003.76
2022-08-12 21:46:00,,0830.0,5.00,0.00,29.2,27.9,00.0,37.9,31.1,30.0,0000.0,0016.61,0004.88,0003.73
2022-08-12 21:47:00,,0830.0,5.00,0.00,29.3,28.1,00.0,38.0,31.2,30.1,0000.0,0014.60,0004.81,0003.72
2022-08-12 21:48:00,,0829.9,4.99,0.00,29.3,28.1,00.0,37.9,31.1,29.6,0000.0,0013.94,0004.83,0003.71
2022-08-12 21:49:00,,0829.9,5.01,0.00,29.2,27.5,00.0,37.9,31.0,29.6,0000.0,0014.81,0004.85,0003.71
2022-08-12 21:50:00,,0829.9,4.99,0.00,29.2,27.2,00.0,37.9,30.9,29.6,0000.0,0015.05,0004.86,0003.72
2022-08-12 21:51:00,,0829.9,5.01,0.00,29.1,27.2,00.0,37.9,30.9,29.5,0000.0,0015.48,0004.85,0003.72
2022-08-12 21:52:00,,0830.1,5.00,0.00,29.1,27.3,00.0,37.9,30.9,29.7,0000.0,0015.91,0004.89,0003.72
2022-08-12 21:53:00,,0829.9,5.00,0.00,29.1,27.5,00.0,37.9,30.9,29.3,0000.0,0016.10,0004.92,0003.72
2022-08-12 21:54:00,,0829.9,4.99,0.00,29.1,27.8,00.0,37.9,31.0,29.5,0000.0,0015.56,0004.93,0003.72
2022-08-12 21:55:00,,0829.8,5.01,0.00,29.2,28.0,00.0,37.9,31.2,29.4,0000.0,0016.20,0004.97,0003.73
2022-08-12 21:56:00,,0829.9,4.99,0.00,29.3,28.2,00.0,37.9,31.2,29.2,0000.0,0017.49,0005.02,0003.75
2022-08-12 21:57:00,,0829.9,5.00,0.00,29.3,27.9,00.0,37.9,31.1,29.3,0000.0,0017.10,0005.03,0003.77
2022-08-12 21:58:00,,0829.9,4.99,0.00,29.2,27.3,00.0,37.9,30.9,29.3,0000.0,0016.91,0005.04,0003.78
2022-08-12 21:59:00,,0829.9,5.01,0.00,29.2,27.1,00.0,37.9,30.9,29.5,0000.0,0017.54,0005.03,0003.80
